Weather History for Durango, CO

Change the Weather History Date:

Tuesday, April 16, 2013

  Actual Average Record
Temperature  
Mean Temperature 53 °F 45 °F  
Max Temperature 68 °F 61 °F 78 °F (1978)
Min Temperature 38 °F 29 °F 10 °F (1999)
Degree Days  
Heating Degree Days 12 20  
Month to date heating degree days 319 349  
Since 1 July heating degree days 6458 6378  
Cooling Degree Days 0 0  
Month to date cooling degree days 0 0  
Year to date cooling degree days 0 0  
Growing Degree Days 2 (Base 50)    
Moisture  
Dew Point 18 °F    
Average Humidity 33    
Maximum Humidity 54    
Minimum Humidity 11    
Precipitation  
Precipitation 0.00 in 0.05 in 1.18 in (1988)
Month to date precipitation 0.67 0.66  
Year to date precipitation 3.28 4.19  
Sea Level Pressure  
Sea Level Pressure 29.60 in    
Wind  
Wind Speed 15 mph (SW)    
Max Wind Speed 37 mph    
Max Gust Speed 48 mph    
Visibility 7 miles    
Events      
T = Trace of Precipitation, MM = Missing Value Source: NWS Daily Summary

Daily Weather History Graph

Daily Weather History Graph

Search for Another Location

Airport:

Trip Planner

Search our weather history database for the weather conditions in past years. The results will help you decide how hot, cold, wet, or windy it might be!

Date:

Astronomy

Apr. 16, 2013 Rise Set
Actual Time 6:34 AM MDT 7:47 PM MDT
Civil Twilight 6:07 AM MDT 8:14 PM MDT
Nautical Twilight 5:35 AM MDT 8:46 PM MDT
Astronomical Twilight 5:02 AM MDT 9:19 PM MDT
Moon 10:59 AM MDT (4/16) 12:42 AM MDT (4/16)
Length of Visible Light 14h 06m
Length of Day
13h 12m
Waxing Crescent, 34% of the Moon is Illuminated
Apr 16
Waxing Crescent
Apr 18
First Quarter
Apr 25
Full
May 2
Last Quarter
May 9
New

Hourly Weather History & Observations

Time (MDT) Temp. Windchill Dew Point Humidity Pressure Visibility Wind Dir Wind Speed Gust Speed Precip Events Conditions
12:53 AM 46.9 °F - 19.9 °F 34% 29.60 in 10.0 mi South 5.8 mph - N/A   Clear
1:53 AM 41.0 °F - 21.9 °F 47% 29.63 in 10.0 mi Calm Calm - N/A   Overcast
2:53 AM 39.9 °F 37.8 °F 24.1 °F 53% 29.62 in 9.0 mi NE 3.5 mph - N/A   Overcast
3:53 AM 45.0 °F 43.5 °F 25.0 °F 46% 29.60 in 10.0 mi South 3.5 mph - N/A   Overcast
4:53 AM 45.0 °F 39.3 °F 25.0 °F 46% 29.61 in 8.0 mi SSW 11.5 mph - N/A   Overcast
6:53 AM 44.1 °F 42.5 °F 24.1 °F 45% 29.65 in 6.0 mi Variable 3.5 mph - N/A   Haze
7:53 AM 46.0 °F 43.1 °F 25.0 °F 44% 29.66 in 8.0 mi SSE 5.8 mph - N/A   Overcast
8:53 AM 51.1 °F - 27.0 °F 39% 29.65 in 10.0 mi South 17.3 mph 23.0 mph N/A   Mostly Cloudy
9:53 AM 54.0 °F - 26.1 °F 34% 29.62 in 10.0 mi SSW 18.4 mph 34.5 mph N/A   Clear
10:53 AM 57.0 °F - 26.1 °F 30% 29.61 in 8.0 mi South 17.3 mph 27.6 mph N/A   Mostly Cloudy
11:53 AM 59.0 °F - 23.0 °F 25% 29.59 in 5.0 mi SW 21.9 mph 33.4 mph N/A   Haze
12:11 PM 60.8 °F - 21.2 °F 22% 29.74 in 5.0 mi SSW 21.9 mph 33.4 mph N/A   Haze
12:53 PM 63.0 °F - 19.9 °F 19% 29.53 in 6.0 mi SSW 20.7 mph 35.7 mph N/A   Haze
1:33 PM 64.4 °F - 17.6 °F 16% 29.69 in 7.0 mi WSW 17.3 mph 33.4 mph N/A   Overcast
1:53 PM 66.0 °F - 17.1 °F 15% 29.52 in 5.0 mi SW 19.6 mph 34.5 mph N/A   Haze
2:25 PM 66.2 °F - 14.0 °F 13% 29.67 in 4.0 mi WSW 23.0 mph 40.3 mph N/A   Haze
2:53 PM 66.9 °F - 12.9 °F 12% 29.50 in 5.0 mi SW 27.6 mph 38.0 mph N/A   Haze
3:00 PM 66.2 °F - 12.2 °F 12% 29.66 in 5.0 mi SSW 31.1 mph 41.4 mph N/A   Haze
3:28 PM 66.2 °F - 14.0 °F 13% 29.66 in 6.0 mi WSW 25.3 mph 48.3 mph N/A   Haze
3:36 PM 66.2 °F - 12.2 °F 12% 29.65 in 5.0 mi SW 24.2 mph 42.6 mph N/A   Haze
3:53 PM 66.9 °F - 12.9 °F 12% 29.46 in 5.0 mi SW 31.1 mph 43.7 mph N/A   Haze
4:25 PM 66.2 °F - 10.4 °F 11% 29.65 in 6.0 mi SW 26.5 mph 47.2 mph N/A   Haze
4:38 PM 66.2 °F - 10.4 °F 11% 29.64 in 6.0 mi SW 28.8 mph 44.9 mph N/A   Haze
4:53 PM 66.0 °F - 10.9 °F 12% 29.46 in 6.0 mi WSW 23.0 mph 36.8 mph N/A   Haze
5:53 PM 64.0 °F - 10.0 °F 12% 29.48 in 6.0 mi SW 27.6 mph 39.1 mph N/A   Haze
6:53 PM 62.1 °F - 8.1 °F 12% 29.52 in 4.0 mi WSW 18.4 mph 39.1 mph N/A   Haze
7:53 PM 57.9 °F - 12.0 °F 16% 29.55 in 3.0 mi WSW 20.7 mph 28.8 mph N/A   Haze
8:53 PM 54.0 °F - 16.0 °F 22% 29.58 in 5.0 mi WSW 16.1 mph 21.9 mph N/A   Haze
9:53 PM 51.1 °F - 18.0 °F 27% 29.62 in 6.0 mi West 10.4 mph - N/A   Haze
10:53 PM 50.0 °F - 19.0 °F 29% 29.62 in 6.0 mi West 10.4 mph - N/A   Haze
11:53 PM 48.0 °F - 19.9 °F 33% 29.64 in 9.0 mi WSW 9.2 mph - N/A   Overcast